Location: Peebles
(55.6412°N, 3.1714°W)
Time: 15:50:37
(UTC+01:00)

USA 186 - Pass Details

Date: 26 September 2021
Orbit: 260 x 423 km, 96.9° (Epoch: 10 October)

Event Time Altitude Azimuth Distance (km) Brightness Sun altitude
Exits shadow 21:27:07 10° 214° (SW) 1,409 4.4 -20.7°
Maximum altitude 21:29:32 22° 268° (W) 939 4.1 -21.0°
Drops below altitude 10° 21:32:06 10° 321° (NW) 1,491 5.5 -21.3°
Sets 21:34:28 0° 337° (NNW) 2,381 6.4 -21.6°
